STARLINK-35452, 66104

Orbit data source: Space-Track

STARLINK-35452, 66104 is a payload satellite owned by SpaceX/Seattle (US) in LEO that was launched on Sun, 19 Oct 2025 UTC via an FALCON 9 launch vehicle from the Air Force Western Test Range (AFWTR). Payload-class satellites include a variety of spacecraft equipped with specific instruments for various scientific and technological missions. These include communications satellites like Starlink; space stations such as the ISS; scientific satellites like the Hubble; Earth observation satellites from companies like Planet Labs, Umbra, and HawkEye 360; GPS; miniature CubeSats for education and research; and military/defense satellites.

Loading next visibility...
Identifier
66104, 2025-236U
Orbit
LEO
Country
Flag of USUS
Related business
Manufacturer
SpaceX/Seattle
Mission
Operational Commercial Communications
Bus & Motor
STARLINK V2MO, Unknown motor
Mass
575 kg wet, ~530 kg dry
Launch date (UTC)
2025-10-19 (6 months ago)
Launch vehicle
FALCON 9
Launch site
Air Force Western Test Range (AFWTR)
Object type
Payload
Rocket body
Debris
Shape & HBR
Box + 2 Pan, 17.7 m
Radar Cross Section
36.964 m²

Expand to show TLE details & history
Last TLE update: 7 hours ago

TLE from 7 hours ago
0 STARLINK-35452
1 66104U 25236U   26095.54000591  .00030801  00000-0  10487-2 0  9995
2 66104  53.1612 339.2851 0001205  92.4788 267.6351 15.30171576 27054
Epoch: 2026-04-05T12:57Z
TLE epoch observation values (Epoch: 2026-04-05T12:57:36.510Z)
Latitude
-0.00001°
Longitude
-48.961°
Altitude
476.234 km
Speed
7.629 km/s
True Right ascension
22h 37m 08s
True Declination
0° 00' 00"
Sunlit
Object was in daylight at epoch
Visualization orbit readout
Latitude
Unknown
Longitude
Unknown
Altitude
Unknown
Speed
Unknown
Apparent Right ascension
Unknown
Apparent Declination
Unknown
Sunlit
N/A
Visualization observer readout
Local Sidereal Time
02:09:09
Azimuth
Unknown
Elevation
Unknown
Doppler factor
Unknown
Orbital elements
Apogee altitude
476.382 km
Perigee altitude
474.73 km
Semi-major axis
6,853.693 km
Eccentricity
0.00012
Inclination
53.1612°
RAAN
339.2851°
Arg. of periapsis
92.4788°
True anomaly
267.6213°
Mean anomaly
267.6351°
Eccentric anomaly
267.6282°
Mean motion
3.82522 °/min
Orbital period
94.11 mins
BSTAR
0.0010487
Loading maneuver chart data...
Computing Atmospheric mass density...
Loading historical data...
Loading historical data...
Loading historical data...
Loading historical data...
Loading historical data...
Loading historical data...
Loading historical data...

Documentation

Showing up to 5 results
|